Location: Turtle Rock Observatory
(36.6913°N, 81.9708°W)
Time: 22:41:28
(UTC-05:00)

Daily predictions for brighter satellites

Satellite Brightness Start Highest point End
(mag) Time Altitude Azimuth Time Altitude Azimuth Time Altitude Azimuth
AQUARIUS 4.2 17:58:50 10° SSE 18:03:19 88° ENE 18:07:50 10° NNW
Hubble Space Telescope 3.8 18:07:17 10° SW 18:08:31 11° SSW 18:09:46 10° S
Cosmos 1844 Rocket 3.2 18:03:47 10° NNW 18:09:24 67° WSW 18:14:58 10° S
OTV 4 1.2 18:12:29 10° W 18:15:23 50° SSW 18:18:16 10° ESE
CENTAUR R/B 4.1 18:11:01 10° WSW 18:16:22 30° NW 18:22:17 10° NNE
Meteor 1-28 Rocket 4.0 18:13:06 10° NE 18:16:25 30° E 18:19:43 10° SSE
CZ-2C R/B 3.2 18:11:41 10° S 18:16:37 59° W 18:21:25 10° NNW
Cosmos 1125 Rocket 3.4 18:11:57 10° NNW 18:17:10 70° ENE 18:22:19 10° SSE
YAOGAN 1 2.9 18:13:49 10° S 18:18:08 74° W 18:22:28 10° NNW
Meteor 2-10 4.3 18:13:35 10° N 18:18:27 43° ENE 18:23:25 10° SSE
COSMO-SKYMED 1 2.7 18:16:44 10° NNE 18:21:01 58° E 18:25:16 10° S
SPOT 3 Rocket 4.1 18:20:17 10° S 18:25:23 66° WSW 18:30:32 10° NNW
Thor Agena Rocket 4.1 18:20:31 10° N 18:25:41 62° WNW 18:30:45 10° SSW
MSX 4.0 18:20:06 10° S 18:25:49 79° WSW 18:31:34 10° NNW
Resurs 01 Rocket 3.4 18:26:17 12° ENE 18:26:50 12° ENE 18:28:29 10° NE
Meteor 1-11 4.2 18:22:56 10° S 18:28:34 71° E 18:34:18 10° NNE
Cosmos 1980 4.2 18:24:14 10° SSW 18:29:50 64° WNW 18:35:30 10° NNE
Lacrosse 5 rocket 1.6 18:26:25 10° NNW 18:30:03 41° NE 18:33:52 10° ESE
Cosmos 1184 Rocket 4.4 18:29:58 10° SE 18:32:16 18° E 18:33:17 16° ENE
Cosmos 1538 Rocket 4.5 18:29:55 10° S 18:34:48 40° ESE 18:39:46 10° NNE
Cosmos 2151 3.3 18:31:02 10° SSW 18:35:13 70° W 18:39:26 10° N
Iridium 4 Rocket 4.5 18:35:14 10° SE 18:38:19 18° E 18:39:48 16° ENE
Cosmos 2279 Rocket 3.9 18:35:23 10° N 18:41:36 73° E 18:47:49 10° SSE
CZ-4 R/B 4.2 18:41:40 10° SW 18:44:37 21° W 18:47:37 10° NW
ALOS 3.4 18:42:15 10° ESE 18:45:45 21° ENE 18:49:16 10° NNE
NOAA 12 4.2 18:43:26 10° SSE 18:48:30 52° ENE 18:53:35 10° N
Cosmos 2333 Rocket 3.6 18:44:03 10° SW 18:49:12 36° WNW 18:54:25 10° N
Cosmos 2219 Rocket 4.1 18:45:48 10° WSW 18:50:34 28° WNW 18:55:22 10° N
Centaur AC-119 4.3 18:49:33 10° S 18:50:42 12° SSE 18:52:10 10° SE
Cosmos 1626 2.2 18:49:17 10° S 18:52:56 55° E 18:56:37 10° NNE
Milstar 3 4.2 18:50:34 10° WSW 18:56:29 32° SSW 19:02:42 10° SE
SJ-6B 3.1 18:53:37 10° SSE 18:57:31 47° ENE 19:01:29 10° N
Nadezhda 4 Rocket 4.0 18:52:40 10° S 18:58:45 58° E 19:04:56 10° NNE
Aureole 2 Rocket 4.1 18:55:33 10° SW 18:59:00 38° WNW 19:02:45 10° N
Cosmos 1703 3.3 18:57:23 10° S 19:01:16 82° W 19:05:11 10° N
Cosmos 2242 Rocket 4.3 18:57:51 10° NNE 19:01:45 30° ENE 19:05:39 10° SE
Cosmos 2278 Rocket 3.0 18:58:16 10° NNW 19:03:47 54° WSW 19:09:17 10° S
FAST Rocket 3.7 19:02:58 10° S 19:05:40 90° NW 19:06:50 29° N
Cosmos 2180 Rocket 4.5 19:00:05 10° N 19:06:17 87° W 19:12:31 10° S
Cosmos 1805 Rocket 3.8 19:02:50 10° SSW 19:07:16 72° W 19:11:44 10° N
Cosmos 1455 2.3 19:03:43 10° N 19:07:24 49° E 19:11:07 10° SSE
SL-19 R/B 4.5 19:06:22 10° SE 19:12:05 51° ENE 19:17:32 10° N
Lacrosse 4 Rocket 3.4 19:11:15 10° N 19:12:09 14° NNE 19:12:09 14° NNE
Cosmos 773 Rocket 3.9 19:10:58 10° S 19:16:03 66° ESE 19:19:20 22° NNE
FREGAT/IRIS 2.5 19:14:39 10° SSE 19:17:41 88° ENE 19:20:46 10° N
Cosmos 1092 Rocket 4.0 19:12:54 10° S 19:19:05 61° E 19:25:20 10° NNE
Sich 1 3.3 19:20:14 10° SSW 19:24:39 72° W 19:29:05 10° N
USA 215 3.2 19:21:35 25° ESE 19:25:35 64° NE 19:32:03 10° NW
Cosmos 2237 Rocket 4.3 19:21:25 10° WSW 19:25:54 24° WNW 19:30:24 10° N
Cosmos 1461 4.4 19:27:31 10° WSW 19:31:18 32° NW 19:33:37 19° N
Cosmos 1633 Rocket 3.3 19:27:45 10° SSW 19:32:08 68° W 19:36:08 12° N
SL-16 R/B 3.0 19:27:03 10° SW 19:32:30 48° WNW 19:37:57 10° N
Cosmos 2369 Rocket 4.3 19:29:03 10° NNE 19:29:27 11° NNE 19:29:27 11° NNE
Cosmos 2195 Rocket 4.3 19:38:20 10° S 19:44:19 62° E 19:46:13 43° NNE
OTV 4 3.6 19:50:15 10° SW 19:50:55 11° SW 19:50:55 11° SW
Aureole 1 Rocket 4.4 19:54:47 10° SW 19:59:51 55° WNW 20:05:29 15° N
CZ-3A R/B 2.9 19:55:35 10° NW 20:00:06 88° NE 20:01:31 54° SE
Spot 2 Rocket 3.7 19:56:47 10° S 20:01:48 69° WSW 20:06:50 10° NNW
Resurs 01 Rocket 2.5 20:03:49 45° NW 20:03:49 45° NW 20:07:10 10° NNW
FENGYUN 3A 4.1 20:01:54 10° S 20:07:10 59° W 20:12:29 10° NNW
Cosmos 1655 Rocket 4.4 20:01:42 10° S 20:06:21 50° SSE 20:06:21 50° SSE
Lacrosse 5 rocket 3.9 20:06:18 10° WNW 20:09:00 18° WSW 20:10:50 14° SSW
USA 229 DEB 4.1 20:02:54 10° SW 20:09:38 60° NW 20:12:14 38° N
USA 229 4.1 20:02:59 10° SW 20:09:44 60° NW 20:12:16 39° N
ALOS 3.8 20:18:44 10° SSW 20:22:57 34° W 20:27:11 10° NNW
